Location: Cottbus
(51.7000°N, 14.3000°E)
Time: 16:10:06
(UTC+02:00)

Tiangong - Visible Passes

Search period start: 23 October 2021 00:00
Search period end: 01 November 2021 23:00
Orbit: 381 x 390 km, 41.5° (Epoch: 23 October)

Date Brightness Start Highest point End Pass type
(mag) Time Alt. Az. Time Alt. Az. Time Alt. Az.
23 Oct 3.5 19:47:13 10° SW 19:48:53 14° S 19:49:05 13° S visible
24 Oct 3.7 18:48:06 10° SSW 18:49:48 14° S 18:51:30 10° SE visible
25 Oct 3.7 19:25:19 10° SW 19:26:44 12° S 19:28:08 10° SSE visible
26 Oct 3.8 18:25:56 10° SW 18:27:37 13° S 18:29:17 10° SSE visible
27 Oct 4.1 19:04:00 10° SSW 19:04:29 10° SSW 19:04:58 10° S visible
